Stations météo

réclame
Mon MeteoGroup
Lerwick, Grande-Bretagne (3005): Température de l'air & dewpoint: 16.06.2018 18:00:00 - 22.06.2018 18:00:00 (BST)Lerwick, Grande-Bretagne (3005): Température de l'air -20cm & Température de l'air -100cm: 16.06.2018 18:00:00 - 22.06.2018 18:00:00 (BST)Lerwick, Grande-Bretagne (3005): Vitesse du vent & gusts: 16.06.2018 18:00:00 - 22.06.2018 18:00:00 (BST)Lerwick, Grande-Bretagne (3005): Direction du vent: 16.06.2018 18:00:00 - 22.06.2018 18:00:00 (BST)Lerwick, Grande-Bretagne (3005): reduced air pressure: 16.06.2018 18:00:00 - 22.06.2018 18:00:00 (BST)Lerwick, Grande-Bretagne (3005): visibility: 16.06.2018 18:00:00 - 22.06.2018 18:00:00 (BST)Lerwick, Grande-Bretagne (3005): Ensoleillement: 16.06.2018 18:00:00 - 22.06.2018 18:00:00 (BST)Lerwick, Grande-Bretagne (3005): Quantités de précipitations: 16.06.2018 18:00:00 - 22.06.2018 18:00:00 (BST)
Date & Time tt [°C] td [°C] tt -20cm [°C] tt -100cm [°C] ff [km/h] ff [knt] fx [km/h] fx [knt] dd ppp [hPa] vv [km] sd [min] rr [mm]
22.06.2018 18:00:00 10,2 7,9 - - 42 23 57 31 W 1023,2 14 0 0,0
22.06.2018 17:00:00 10,4 7,8 - - 42 23 59 32 W 1023,8 13 0 0,0
22.06.2018 16:00:00 11,0 7,8 - - 37 20 52 28 W 1023,8 15 12 0,0
22.06.2018 15:00:00 10,8 7,9 - - 39 21 52 28 WNW 1024,2 13 0 0,0
22.06.2018 14:00:00 10,1 8,4 - - 34 18 50 27 W 1024,3 14 0 0,0
22.06.2018 13:00:00 9,9 8,9 - - 39 21 52 28 WNW 1024,3 10 0 0,2
22.06.2018 12:00:00 10,2 9,3 - - 31 17 48 26 WNW 1024,4 19 0 0,0
22.06.2018 11:00:00 10,4 9,6 - - 26 14 - - WNW 1024,4 28 0 0,2
22.06.2018 10:00:00 10,0 9,4 11,7 9,7 29 16 - - WNW 1024,5 2,7 0 0,2
22.06.2018 09:00:00 10,3 7,7 - - 29 16 - - WNW 1024,5 22 6 0,0
22.06.2018 08:00:00 9,9 6,3 - - 34 18 46 25 WNW 1024,7 23 6 0,0
22.06.2018 07:00:00 9,3 6,9 - - 31 17 - - WNW 1024,6 16 18 0,0
22.06.2018 06:00:00 9,3 4,9 - - 26 14 - - WNW 1024,8 30 54 0,0
22.06.2018 05:00:00 8,5 3,8 - - 18 10 - - NW 1024,9 27 18 0,0
22.06.2018 04:00:00 7,9 3,5 - - 24 13 - - NW 1024,8 21 0 0,0
22.06.2018 03:00:00 7,9 3,6 - - 26 14 - - NW 1024,5 17 0 0,0
22.06.2018 02:00:00 7,9 4,4 - - 21 11 - - NW 1024,6 15 0 0,0
22.06.2018 01:00:00 7,9 5,0 - - 24 13 - - NNW 1024,3 12 - 0,0
22.06.2018 00:00:00 8,0 4,8 - - 35 19 52 28 NNW 1024,0 14 0 0,0
21.06.2018 23:00:00 7,9 4,5 - - 42 23 55 30 NNW 1023,3 14 0 0,0
21.06.2018 22:00:00 8,2 3,7 - - 37 20 54 29 NNW 1023,2 18 0 0,0
21.06.2018 21:00:00 8,5 4,0 - - 37 20 63 34 NNW 1022,5 19 0 0,0
21.06.2018 20:00:00 8,6 4,5 - - 37 20 65 35 NNW 1021,9 16 0 0,0
21.06.2018 19:00:00 8,8 4,5 - - 37 20 63 34 NNW 1021,3 17 0 0,0
21.06.2018 18:00:00 8,8 4,7 - - 44 24 61 33 NNW 1020,4 13 0 0,0
21.06.2018 17:00:00 9,3 5,3 - - 39 21 61 33 NNW 1019,7 16 0 0,0
21.06.2018 16:00:00 8,8 6,4 - - 35 19 63 34 NW 1019,2 15 0 0,0
21.06.2018 15:00:00 8,7 6,5 - - 31 17 59 32 NNW 1018,5 15 0 0,2
21.06.2018 14:00:00 8,3 5,8 - - 42 23 63 34 NNW 1017,9 10 0 0,0
21.06.2018 13:00:00 8,7 6,5 - - 31 17 52 28 NW 1016,9 16 0 0,4
21.06.2018 12:00:00 8,1 6,1 - - 29 16 59 32 NW 1016,3 10 0 0,2
21.06.2018 11:00:00 8,0 6,5 - - 34 18 54 29 NNW 1015,5 16 0 0,6
21.06.2018 10:00:00 8,6 6,4 12,0 9,7 28 15 55 30 NW 1014,9 20 0 0,2
21.06.2018 09:00:00 7,4 6,3 - - 28 15 46 25 NW 1014,8 6 0 0,6
21.06.2018 08:00:00 7,7 6,0 - - 34 18 50 27 WNW 1014,2 4,0 0 0,2
21.06.2018 07:00:00 8,4 5,7 - - 28 15 - - WNW 1014,1 19 0 0,0
21.06.2018 06:00:00 7,7 6,7 - - 22 12 - - NW 1014,0 21 0 1,2
21.06.2018 05:00:00 8,5 5,3 - - 24 13 - - WNW 1013,6 30 0 0,0
21.06.2018 04:00:00 7,9 5,3 - - 26 14 - - WNW 1013,7 35 0 0,0
21.06.2018 03:00:00 7,6 5,1 - - 21 11 - - WNW 1013,8 40 0 0,0
21.06.2018 02:00:00 7,6 5,3 - - 16 9 - - WNW 1013,6 50 0 0,2
21.06.2018 01:00:00 7,2 5,2 - - 16 9 - - WNW 1013,4 40 - 0,0
21.06.2018 00:00:00 7,3 5,2 - - 16 9 - - WNW 1013,2 50 0 0,0
20.06.2018 23:00:00 8,0 5,4 - - 16 9 - - W 1013,1 50 0 0,0
20.06.2018 22:00:00 8,1 3,9 - - 15 8 - - W 1012,7 50 0 0,0
20.06.2018 21:00:00 9,0 5,1 - - 21 11 - - W 1012,6 50 18 0,0
20.06.2018 20:00:00 9,9 4,9 - - 21 11 - - W 1012,4 50 36 0,0
20.06.2018 19:00:00 10,7 5,1 - - 22 12 - - W 1012,5 30 18 0,0
20.06.2018 18:00:00 10,8 5,2 - - 28 15 - - W 1012,5 45 48 0,0
20.06.2018 17:00:00 11,6 5,3 - - 28 15 - - W 1012,5 19 60 0,0
20.06.2018 16:00:00 12,2 4,3 - - 28 15 - - W 1012,3 35 60 0,0
20.06.2018 15:00:00 11,5 3,0 - - 31 17 - - W 1012,1 35 60 0,0
20.06.2018 14:00:00 11,5 3,4 - - 31 17 - - W 1012,1 30 60 0,0
20.06.2018 13:00:00 11,7 5,7 - - 22 12 - - WSW 1012,1 28 54 0,0
20.06.2018 12:00:00 11,7 4,4 - - 28 15 - - W 1012,2 29 60 0,0
20.06.2018 11:00:00 11,8 3,9 - - 28 15 - - WSW 1011,9 40 60 0,0
20.06.2018 10:00:00 10,4 3,0 11,9 9,7 18 10 - - W 1011,6 28 54 0,0
20.06.2018 09:00:00 10,4 5,1 - - 18 10 - - W 1011,7 22 48 0,0
20.06.2018 08:00:00 9,7 5,7 - - 16 9 - - W 1011,6 30 42 0,0
20.06.2018 07:00:00 9,6 6,1 - - 9 5 - - W 1011,3 16 36 0,0
20.06.2018 06:00:00 7,7 6,0 - - 8 4 - - W 1011,5 21 6 0,0
20.06.2018 05:00:00 7,7 5,6 - - 16 9 - - W 1011,5 19 0 0,0
20.06.2018 04:00:00 8,2 6,3 - - 9 5 - - W 1011,9 12 0 0,0
20.06.2018 03:00:00 7,9 6,3 - - 22 12 - - WSW 1012,2 20 0 0,0
20.06.2018 02:00:00 8,2 5,8 - - 24 13 - - WSW 1012,4 21 0 0,0
20.06.2018 01:00:00 8,3 6,0 - - 24 13 - - WSW 1012,6 16 - 0,0
20.06.2018 00:00:00 8,7 6,2 - - 31 17 - - WSW 1012,7 15 0 0,0
19.06.2018 23:00:00 8,6 5,7 - - 34 18 50 27 WSW 1012,4 18 0 0,0
19.06.2018 22:00:00 9,1 6,1 - - 34 18 59 32 WSW 1012,1 13 24 0,0
19.06.2018 21:00:00 9,9 5,7 - - 46 25 59 32 WSW 1011,8 14 54 0,0
19.06.2018 20:00:00 10,0 5,6 - - 42 23 65 35 W 1011,5 18 30 0,0
19.06.2018 19:00:00 11,1 6,0 - - 48 26 68 37 WSW 1011,2 20 60 0,0
19.06.2018 18:00:00 11,4 6,6 - - 50 27 65 35 WSW 1011,0 20 60 0,0
19.06.2018 17:00:00 11,5 6,7 - - 48 26 72 39 WSW 1010,7 20 60 0,0
19.06.2018 16:00:00 12,0 6,6 - - 55 30 72 39 WSW 1010,2 20 36 0,0
19.06.2018 15:00:00 12,3 5,4 - - 57 31 76 41 WSW 1009,7 16 60 0,0
19.06.2018 14:00:00 12,1 6,0 - - 54 29 74 40 W 1009,1 12 60 0,0
19.06.2018 13:00:00 12,4 3,7 - - 54 29 76 41 W 1008,5 19 54 0,0
19.06.2018 12:00:00 10,1 6,2 - - 54 29 76 41 WSW 1007,5 12 12 0,0
19.06.2018 11:00:00 11,4 6,1 - - 55 30 78 42 W 1006,6 16 12 0,0
19.06.2018 10:00:00 11,1 3,4 12,2 10,0 55 30 83 45 W 1005,4 16 18 0,0
19.06.2018 09:00:00 10,5 5,0 - - 63 34 85 46 WSW 1004,1 16 6 0,0
19.06.2018 08:00:00 10,3 5,5 - - 65 35 89 48 W 1002,9 11 0 0,0
19.06.2018 07:00:00 9,3 7,2 - - 57 31 89 48 W 1002,0 6 0 0,0
19.06.2018 06:00:00 10,2 5,5 - - 67 36 87 47 WSW 1000,8 11 6 0,0
19.06.2018 05:00:00 9,3 7,7 - - 57 31 87 47 WSW 1000,3 8 0 0,4
19.06.2018 04:00:00 9,7 7,5 - - 65 35 89 48 WSW 999,3 8 0 0,0
19.06.2018 03:00:00 9,5 7,7 - - 65 35 85 46 WSW 999,0 7 0 0,0
19.06.2018 02:00:00 9,4 7,1 - - 70 38 94 51 WSW 998,6 9 0 0,0
19.06.2018 01:00:00 9,2 6,8 - - 68 37 93 50 WSW 998,6 6 - 0,2
19.06.2018 00:00:00 9,2 5,7 - - 63 34 85 46 SW 998,9 13 0 0,4
18.06.2018 23:00:00 9,3 7,3 - - 54 29 72 39 SW 999,6 7 0 0,0
18.06.2018 22:00:00 9,2 6,2 - - 57 31 80 43 SW 1000,1 11 0 0,0
18.06.2018 21:00:00 9,5 6,7 - - 57 31 80 43 SW 1000,0 10 0 0,2
18.06.2018 20:00:00 9,7 6,5 - - 55 30 85 46 SW 1000,2 12 30 0,0
18.06.2018 19:00:00 10,6 6,1 - - 61 33 80 43 SW 1000,2 13 18 0,0
18.06.2018 18:00:00 11,3 6,2 - - 65 35 85 46 SW 1000,5 13 36 0,0
18.06.2018 17:00:00 9,9 7,0 - - 57 31 81 44 SW 1001,0 12 0 0,4
18.06.2018 16:00:00 11,2 6,6 - - 59 32 81 44 SW 1001,7 15 6 0,0
18.06.2018 15:00:00 11,8 6,6 - - 63 34 80 43 SW 1001,9 19 12 0,0
18.06.2018 14:00:00 12,5 6,9 - - 54 29 80 43 SW 1002,0 14 42 0,0
18.06.2018 13:00:00 13,0 6,8 - - 59 32 83 45 SW 1001,8 16 36 0,0
18.06.2018 12:00:00 12,6 7,3 - - 61 33 83 45 SW 1001,3 13 42 0,0
18.06.2018 11:00:00 12,5 7,6 - - 63 34 87 47 SW 1001,1 12 24 0,0
18.06.2018 10:00:00 11,2 7,3 12,7 9,9 63 34 81 44 SW 1000,8 12 36 0,0
18.06.2018 09:00:00 11,0 7,3 - - 57 31 74 40 SW 1000,6 12 6 0,0
18.06.2018 08:00:00 10,8 8,1 - - 42 23 63 34 SW 1001,1 10 12 0,0
18.06.2018 07:00:00 10,5 8,6 - - 44 24 57 31 WSW 1000,7 9 18 0,0
18.06.2018 06:00:00 10,1 8,3 - - 41 22 54 29 WSW 1000,7 10 6 0,0
18.06.2018 05:00:00 10,3 9,5 - - 41 22 63 34 WSW 1000,5 11 0 0,0
18.06.2018 04:00:00 10,7 10,2 - - 48 26 63 34 WSW 1000,1 18 0 0,2
18.06.2018 03:00:00 10,9 10,5 - - 44 24 59 32 SW 1000,5 2,5 0 0,4
18.06.2018 02:00:00 10,9 10,4 - - 18 10 - - S 1001,1 9 0 0,4
18.06.2018 01:00:00 10,7 10,3 - - 16 9 - - SSE 1001,7 7 - 0,0
18.06.2018 00:00:00 10,7 10,1 - - 21 11 - - S 1002,8 12 0 0,0
17.06.2018 23:00:00 10,2 9,5 - - 13 7 - - SSE 1003,6 16 0 0,0
17.06.2018 22:00:00 10,3 9,5 - - 16 9 - - S 1004,4 22 0 0,0
17.06.2018 21:00:00 10,6 10,0 - - 15 8 - - S 1005,0 14 0 0,0
17.06.2018 20:00:00 10,9 9,2 - - 24 13 - - S 1005,4 35 48 0,0
17.06.2018 19:00:00 13,0 8,2 - - 15 8 - - S 1005,4 40 60 0,0
17.06.2018 18:00:00 12,8 9,1 - - 26 14 - - WSW 1005,7 30 60 0,0
17.06.2018 17:00:00 14,0 9,5 - - 24 13 - - SW 1005,6 35 42 0,0
17.06.2018 16:00:00 13,0 10,1 - - 11 6 - - S 1006,0 30 0 0,0
17.06.2018 15:00:00 12,6 9,6 - - 15 8 - - SSW 1006,1 30 42 0,0
17.06.2018 14:00:00 13,8 10,7 - - 11 6 - - S 1006,1 35 60 0,0
17.06.2018 13:00:00 13,8 11,4 - - 13 7 - - SE 1006,1 25 36 0,0
17.06.2018 12:00:00 12,5 11,0 - - 11 6 - - SSE 1006,3 18 0 0,0
17.06.2018 11:00:00 11,7 10,9 - - 13 7 - - ESE 1006,5 19 0 0,0
17.06.2018 10:00:00 11,0 10,6 12,2 9,9 16 9 - - E 1006,6 6 0 0,0
17.06.2018 09:00:00 11,0 10,4 - - 21 11 - - E 1006,5 15 0 0,0
17.06.2018 08:00:00 11,4 10,2 - - 22 12 - - E 1006,3 27 6 0,0
17.06.2018 07:00:00 11,4 9,7 - - 22 12 - - E 1006,3 30 6 0,0
17.06.2018 06:00:00 10,9 10,6 - - 18 10 - - ENE 1006,4 6 0 0,0
17.06.2018 05:00:00 10,7 10,4 - - 18 10 - - ENE 1007,0 5 0 0,0
17.06.2018 04:00:00 10,8 10,2 - - 15 8 - - ENE 1007,4 10 0 0,0
17.06.2018 03:00:00 10,6 9,9 - - 15 8 - - E 1007,7 13 0 0,0
17.06.2018 02:00:00 10,6 10,0 - - 15 8 - - E 1007,6 9 0 0,0
17.06.2018 01:00:00 10,7 10,0 - - 11 6 - - E 1008,2 11 - 0,0
17.06.2018 00:00:00 10,6 9,7 - - 9 5 - - ESE 1008,5 13 0 0,0
16.06.2018 23:00:00 10,1 9,6 - - 15 8 - - SE 1008,7 11 0 0,0
16.06.2018 22:00:00 10,5 9,9 - - 21 11 - - SE 1008,9 11 6 0,0
16.06.2018 21:00:00 11,0 9,9 - - 18 10 - - SE 1008,9 11 60 0,0
16.06.2018 20:00:00 11,4 10,1 - - 15 8 - - SE 1009,2 13 60 0,0
16.06.2018 19:00:00 12,3 10,2 - - 15 8 - - SE 1009,4 17 48 0,0
16.06.2018 18:00:00 12,5 10,6 - - 13 7 - - SSE 1009,4 14 60 0,0

tt = Température de l'air
td = dewpoint
tt -20cm = Température de l'air -20cm
tt -100cm = Température de l'air -100cm
ff = Vitesse du vent
fx = gusts
dd = Direction du vent
ppp = reduced air pressure
vv = visibility
sd = Ensoleillement
rr = Quantités de précipitations

stations d'obs. à proximité